Location: ??
(34.7707°N, 135.6540°E)
Time: 10:39:32
(UTC+00:00)

ISS - Visible Passes

Search period start: 27 September 2021 00:00
Search period end: 07 October 2021 00:00
Orbit: 417 x 422 km, 51.6° (Epoch: 27 September)

Date Brightness Start Highest point End Pass type
(mag) Time Alt. Az. Time Alt. Az. Time Alt. Az.
01 Oct -0.9 10:40:20 10° NNW 10:40:52 13° N 10:40:52 13° N visible
02 Oct -1.5 09:53:37 10° N 09:55:22 13° NNE 09:55:28 13° NNE visible
03 Oct -1.3 10:41:56 10° NW 10:43:07 20° NNW 10:43:07 20° NNW visible
04 Oct -2.7 09:54:49 10° NNW 09:57:51 31° NE 09:57:53 31° NE visible
05 Oct -2.1 09:07:51 10° NNW 09:10:24 20° NNE 09:12:46 11° E visible
05 Oct -1.3 10:44:10 10° WNW 10:45:46 23° WNW 10:45:46 23° WNW visible
06 Oct -3.8 09:56:43 10° NW 10:00:04 78° SW 10:00:47 51° SSE visible
